Regional Weather Roundup
Issued by NWS

Home | Current Version | Previous Version | Graphics & Text | Print | Product List | Glossary On
Versions: 1 2 3 4 5 6 7 8 9 10 11 12 13 14 15 16 17 18 19 20 21 22 23 24 25 26 27 28 29 30 31 32 33 34 35 36 37 38 39 40 41 42 43 44 45 46 47 48 49 50
857
ASUS43 KBIS 280902
RWRND

NORTH DAKOTA REGIONAL WEATHER ROUNDUP
NATIONAL WEATHER SERVICE BISMARCK ND
400 AM CDT SUN MAY 28 2017

NOTE: "FAIR" INDICATES FEW OR NO CLOUDS BELOW 12,000 FEET WITH NO
SIGNIFICANT WEATHER AND/OR OBSTRUCTIONS TO VISIBILITY.


NDZ001>003-009>011-017-281000-
NORTHWEST NORTH DAKOTA

CITY           SKY/WX    TMP DP  RH WIND       PRES   REMARKS
WILLISTON      FAIR      50  34  54 NW12      29.96R
MINOT          MOCLDY    54  45  71 W12       29.86R
MINOT AFB      CLEAR     51  46  83 W12       29.85R
$$

NDZ018>021-031>035-040>046-281000-
SOUTHWEST NORTH DAKOTA

CITY           SKY/WX    TMP DP  RH WIND       PRES   REMARKS
BISMARCK       FAIR      46  42  86 W7        29.87F
DICKINSON      FAIR      41  36  82 W6        29.94R
GARRISON         N/A     45  42  89 NW12      29.88R
HETTINGER ARPT CLEAR     44  38  79 CALM      29.97R
$$

NDZ004>008-012>016-024-026-027-054-281000-
NORTHEAST NORTH DAKOTA

CITY           SKY/WX    TMP DP  RH WIND       PRES   REMARKS
GRAND FORKS    CLOUDY    54  49  83 W8        29.73F
GRND FRKS AFB  CLOUDY    51  47  85 NW9       29.74S
DEVILS LAKE    CLOUDY    52  47  83 NW12      29.79S
$$

NDZ022-023-025-028>030-036>039-047>053-281000-
SOUTHEAST NORTH DAKOTA

CITY           SKY/WX    TMP DP  RH WIND       PRES   REMARKS
FARGO          LGT RAIN  52  49  89 NW9       29.76S
JAMESTOWN      CLOUDY    50  44  80 NW5       29.80S
$$





USA.gov is the U.S. government's official web portal to all federal, state and local government web resources and services.